Location: Mount Wilson Observatory
(34.2257°N, 118.0571°W)
Time: 21:19:21
(UTC-07:00)

ATLAS 3B CENTAUR R/B - Visible Passes

Search period start: 22 September 2014 00:00
Search period end: 02 October 2014 00:00
Orbit: 230 x 8446 km, 28.1° (Epoch: 21 September)

Date Brightness Start Highest point End Pass type
(mag) Time Alt. Az. Time Alt. Az. Time Alt. Az.
22 Sep 4.1 05:36:14 17° WSW 05:41:43 37° S 06:01:12 10° SE visible
23 Sep 4.9 03:03:57 16° ESE 03:03:57 16° ESE 03:06:21 10° ESE visible
23 Sep 4.6 06:08:21 10° WSW 06:15:59 32° S 06:36:51 10° SE visible
24 Sep 4.4 03:35:21 25° SE 03:35:21 25° SE 03:40:53 10° ESE visible
25 Sep 4.0 04:06:29 30° SSE 04:06:29 30° SSE 04:15:10 10° SE visible
26 Sep 3.9 04:37:20 28° SSW 04:37:56 29° S 04:49:05 10° SE visible
27 Sep 4.1 05:07:55 21° SW 05:10:38 25° S 05:22:31 10° SE visible
28 Sep 4.5 05:38:12 12° SW 05:43:17 21° S 05:55:16 10° SSE visible
28 Sep 4.5 20:28:06 10° SSW 20:31:19 12° S 20:31:56 12° S visible
29 Sep 4.9 06:09:57 10° SW 06:15:56 17° S 06:27:08 10° SSE visible
29 Sep 4.5 20:59:01 10° SSW 21:01:43 14° SSW 21:01:43 14° SSW visible
30 Sep 5.0 03:34:14 13° SE 03:34:14 13° SE 03:35:32 10° SE visible
30 Sep 4.8 21:30:12 10° SW 21:31:13 12° SW 21:31:13 12° SW visible
01 Oct 4.8 04:03:43 15° SSE 04:03:43 15° SSE 04:06:52 10° SE visible
